Starlink 5834

operational
NORAD ID: 57071 Int'l Des: 2023-088 Owner: SPXS Country: US Constellation: starlink
LEOCIRCULAR

About Starlink 5834

Description loading...

Live Position

Loading 3D Globe...

Upcoming Passes

Altitude History

Altitude vs Time

uPlot chart will show altitude changes over time

Two-Line Element Set

1 57071U 23088Z 26061.50199380 .00000171 00000-0 27760-4 0 9996
2 57071 43.0034 133.9422 0001520 269.5155 90.5513 15.02535234149266
Epoch: Mar 2, 2026 • Age: 25 hours

Current Status

Altitude 561.0 km
Velocity 7.59 km/s
Sub-Earth Point 33.18°N, 1.32°W
Launch Date Jun 22, 2023
Age 2.6 years
Type internet

Technical Details

Classification Payload
Mass 305.00 kg
Dry Mass 290.00 kg
Total Mass 305.00 kg
Length 0.20 m
Diameter 2.80 m
Span 9.00 m
Shape Box + pan
Manufacturer SPXS
Bus Type Starlink
Phase Status In Orbit
Owner/State SPXS/US

Large Constellations

Loading constellations...